Location: Krasnoyarskiy Pitomnik
(51.1333°N, 71.6167°E)
Time: 09:36:56
(UTC+00:00)

Altair - Pass Details

Date: 17 April 2024
Orbit: 1501 x 1682 km, 47.2° (Epoch: 17 May)

Event Time Altitude Azimuth Distance (km) Brightness Sun altitude
Rises 12:45:57 0° 181° (S) 4,913 10.2 12.6°
Reaches altitude 10° 12:50:38 10° 163° (SSE) 3,912 9.5 11.9°
Maximum altitude 12:56:20 17° 128° (SE) 3,357 8.9 11.0°
Drops below altitude 10° 13:01:57 10° 92° (E) 3,856 9.0 10.1°
Sets 13:06:28 0° 74° (ENE) 4,811 9.5 9.4°
